Location: Unspecified
(51.6250°N, 0.8230°E)
Time: 06:01:10
(UTC+00:00)

ISS - Pass Details

Date: 03 February 2021
Orbit: 417 x 422 km, 51.6° (Epoch: 02 March)

Event Time Altitude Azimuth Distance (km) Brightness Sun altitude
Rises 19:29:18 0° 277° (W) 2,376 1.5 -24.9°
Reaches altitude 10° 19:32:55 10° 237° (WSW) 1,506 -0.3 -25.4°
Maximum altitude 19:33:41 11° 224° (SW) 1,468 -0.6 -25.5°
Drops below altitude 10° 19:34:28 10° 210° (SSW) 1,504 -0.7 -25.7°
Enters shadow 19:34:31 10° 209° (SSW) 1,509 -0.7 -25.7°
